This is the latest recevied weather packets stored in our database for station/object IW4ENL-7. If no packets are shown the sender has not sent any weather packets the latest 1 day(s).
| Time | Temp. | Humidity | Pressure | Rain* | Wind** | Luminosity | Snow |
|---|---|---|---|---|---|---|---|
| 1778011777 | 11.67° C | 62% | 961 hPa | - | 0 m/s | - | - |
| 1778011594 | 11.67° C | 63% | 961 hPa | - | 0 m/s | - | - |
| 1778011411 | 11.67° C | 63% | 961 hPa | - | 0 m/s | - | - |
| 1778011228 | 11.67° C | 63% | 961 hPa | - | 0.45 m/s, 13° | - | - |
| 1778011046 | 11.67° C | 63% | 961 hPa | - | 0.89 m/s, 0° | - | - |
| 1778010863 | 11.67° C | 63% | 961 hPa | - | 0 m/s | - | - |
| 1778010497 | 11.67° C | 64% | 961 hPa | - | 0 m/s | - | - |
| 1778010314 | 11.67° C | 65% | 961 hPa | - | 0.45 m/s, 143° | - | - |
| 1778010131 | 12.22° C | 65% | 961 hPa | - | 0.45 m/s, 103° | - | - |
| 1778009949 | 12.22° C | 65% | 961 hPa | - | 1.34 m/s, 112° | - | - |
| 1778009765 | 12.22° C | 65% | 961 hPa | - | 1.34 m/s, 117° | - | - |
| 1778009583 | 12.22° C | 66% | 961 hPa | - | 1.79 m/s, 135° | - | - |
| 1778009400 | 12.22° C | 64% | 961 hPa | - | 1.34 m/s, 130° | - | - |
| 1778009217 | 12.22° C | 62% | 961 hPa | - | 1.34 m/s, 103° | - | - |
| 1778009034 | 12.22° C | 60% | 961 hPa | - | 0.45 m/s, 72° | - | - |
| 1778008668 | 12.22° C | 60% | 961 hPa | - | 0 m/s | - | - |
| 1778008485 | 12.22° C | 61% | 961 hPa | - | 0.45 m/s, 0° | - | - |
| 1778008303 | 12.22° C | 61% | 961 hPa | - | 0 m/s | - | - |
| 1778008120 | 12.22° C | 61% | 961 hPa | - | 0.45 m/s, 90° | - | - |
| 1778007937 | 12.22° C | 61% | 961 hPa | - | 0.45 m/s, 161° | - | - |
| 1778007754 | 12.22° C | 61% | 961 hPa | - | 0.89 m/s, 81° | - | - |
| 1778007571 | 12.22° C | 60% | 961 hPa | - | 0.89 m/s, 90° | - | - |
| 1778007388 | 12.22° C | 60% | 961 hPa | - | 0.45 m/s, 78° | - | - |
| 1778007205 | 12.22° C | 60% | 961 hPa | - | 0.89 m/s, 98° | - | - |
| 1778007022 | 12.22° C | 60% | 961 hPa | - | 0.89 m/s, 45° | - | - |
* Rain since midnight (hover to see other rain measurements)
** Current wind speed in m/s (hover to see current wind gust speed)